Weather History for LIRM - November, 2012

Change the Weather History Date:

Sunday, November 11, 2012

  Actual Average (LIRN) Record (LIRN)
Temperature  
Mean Temperature 60 °F -  
Max Temperature 73 °F 61 °F 75 °F (2001)
Min Temperature 48 °F 43 °F 42 °F (2002)
Degree Days  
Heating Degree Days 4    
Growing Degree Days 10 (Base 50)    
Moisture  
Dew Point 53 °F    
Average Humidity 77    
Maximum Humidity 93    
Minimum Humidity 55    
Precipitation  
Precipitation 0.00 in 0.16 in - ()
Sea Level Pressure  
Sea Level Pressure 30.01 in    
Wind  
Wind Speed 9 mph ()    
Max Wind Speed 58 mph    
Max Gust Speed -    
Visibility 6.9 miles    
Events      
Averages and records for this station are not official NWS values.
T = Trace of Precipitation, MM = Missing Value Source: Averaged Metar Reports

Daily Weather History Graph

Daily Weather History Graph

Search for Another Location

Airport or City:

Trip Planner

Search our weather history database for the weather conditions in past years. The results will help you decide how hot, cold, wet, or windy it might be!

Date:

Astronomy

Nov. 11, 2012 Rise Set
Actual Time 6:46 AM CET 4:48 PM CET
Civil Twilight 6:17 AM CET 5:17 PM CET
Nautical Twilight 5:44 AM CET 5:50 PM CET
Astronomical Twilight 5:12 AM CET 6:22 PM CET
Moon 3:39 AM CET (11/11) 3:01 PM CET (11/11)
Length of Visible Light 10h 59m
Length of Day
10h 01m
Waning Crescent, 9% of the Moon is Illuminated
Nov 11
Waning Crescent
Nov 13
New
Nov 20
First Quarter
Nov 28
Full
Dec 6
Last Quarter

Hourly Weather History & Observations

Time (CET) Temp. Dew Point Humidity Pressure Visibility Wind Dir Wind Speed Gust Speed Precip Events Conditions
12:55 AM 50.0 °F 46.4 °F 87% 30.04 in - NNE 4.6 mph - N/A   Clear
1:00 AM 49 °F 47 °F 88% 30.04 in 6 mi NNE 4.6 mph - -  
1:55 AM 48.2 °F 46.4 °F 93% 30.01 in - NE 4.6 mph - N/A   Clear
2:55 AM 48.2 °F 46.4 °F 93% 30.01 in - North 57.5 mph - N/A   Clear
3:55 AM 48.2 °F 46.4 °F 93% 29.98 in 4.3 mi NE 6.9 mph - N/A   Unknown
4:00 AM 48 °F 46 °F 90% 29.99 in 4 mi NE 6.9 mph - -   Mist
4:55 AM 48.2 °F 46.4 °F 93% 29.98 in 4.3 mi ENE 4.6 mph - N/A   Partly Cloudy
5:55 AM 50.0 °F 46.4 °F 87% 29.98 in 5.0 mi NE 5.8 mph - N/A   Mostly Cloudy
6:55 AM 48.2 °F 46.4 °F 93% 29.98 in 6.2 mi ENE 1.2 mph - N/A   Partly Cloudy
7:00 AM 48 °F 46 °F 89% 29.98 in 7 mi ENE 1.2 mph - -  
7:55 AM 50.0 °F 46.4 °F 87% 29.98 in 6.2 mi NE 5.8 mph - N/A   Partly Cloudy
8:55 AM 55.4 °F 50.0 °F 82% 30.01 in 6.2 mi ENE 6.9 mph - N/A   Partly Cloudy
9:55 AM 60.8 °F 51.8 °F 72% 30.01 in 6.2 mi North 5.8 mph - N/A   Partly Cloudy
10:00 AM 61 °F 52 °F 65% 30.01 in 12 mi North 5.8 mph - -   Scattered Clouds
10:55 AM 69.8 °F 59.0 °F 68% 30.04 in 6.2 mi SSW 3.5 mph - N/A   Partly Cloudy
11:03 AM 71.6 °F 59.0 °F 64% 30.04 in 6.2 mi South 18.4 mph - N/A   Partly Cloudy
11:55 AM 71.6 °F 60.8 °F 69% 30.01 in 6.2 mi South 17.3 mph - N/A   Partly Cloudy
12:55 PM 73.4 °F 60.8 °F 65% 30.01 in 6.2 mi South 18.4 mph - N/A   Partly Cloudy
1:00 PM 73 °F 60 °F 55% 30.02 in 12 mi South 18.4 mph - -  
1:55 PM 73.4 °F 60.8 °F 65% 29.98 in 6.2 mi SSE 17.3 mph - N/A   Partly Cloudy
2:55 PM 73.4 °F 59.0 °F 61% 29.98 in 6.2 mi South 13.8 mph - N/A   Partly Cloudy
3:55 PM 71.6 °F 59.0 °F 64% 29.98 in 6.2 mi SE 13.8 mph - N/A   Partly Cloudy
4:00 PM 72 °F 60 °F 56% 29.99 in 12 mi SE 13.8 mph - -   Scattered Clouds
4:55 PM 69.8 °F 59.0 °F 68% 29.98 in 6.2 mi SSE 11.5 mph - N/A   Scattered Clouds
5:55 PM 69.8 °F 57.2 °F 64% 30.01 in 6.2 mi SE 13.8 mph - N/A   Scattered Clouds
6:55 PM 66.2 °F 57.2 °F 73% 30.01 in 6.2 mi ENE 5.8 mph - N/A   Partly Cloudy
7:00 PM 67 °F 57 °F 62% 30.01 in 12 mi ENE 5.8 mph - -  
7:55 PM 62.6 °F 55.4 °F 77% 30.01 in 6.2 mi East 2.3 mph - N/A   Partly Cloudy
8:55 PM 60.8 °F 55.4 °F 82% 30.04 in 6.2 mi NNE 6.9 mph - N/A   Partly Cloudy
9:55 PM 59.0 °F 55.4 °F 88% 30.06 in 6.2 mi NNW 5.8 mph - N/A   Partly Cloudy
10:00 PM 59 °F 56 °F 85% 30.07 in 12 mi NNW 5.8 mph - -   Scattered Clouds
10:55 PM 57.2 °F 53.6 °F 88% 30.06 in 6.2 mi NNE 4.6 mph - N/A   Partly Cloudy
11:55 PM 57.2 °F 53.6 °F 88% 30.06 in 6.2 mi NNE 4.6 mph - N/A   Partly Cloudy